[[{"header":{"parameterUnit":"m.s-1","parameterCategory":2,"la1":30.2991,"la2":30.254,"lo1":-89.0895,"lo2":-89.0444,"dy":0.0017,"dx":0.0017,"nx":28,"ny":28,"refTime":"2024-08-04T21:00:00:Z","depth":"0","parameterNumber":2,"parameterNumberName":"U-component_of_CURRENTS"},"data":[0,0,0,0,0,0,0,0,0,0,0,0,0,0,0,0,0,0,0,0,0,0,0,0,0,0,0,0,0,0,0,0,0,0,0,0,0,0,0,0,0,0,0,0,0,0,0,0,0,0,0,0,0,0,0,0,0,0,0.2507,0.2508,0,0.2547,0.2547,0.2547,0.2556,0.2556,0.2556,0.2556,0.254,0.254,0.2539,0,0,0,0,0,0,0,0,0,0,0,0,0,0.2495,0.2495,0.2507,0.2508,0.2509,0.2547,0.2547,0.2547,0.2556,0.2556,0.2556,0.2556,0.254,0.254,0.2539,0,0,0,0,0,0,0,0,0,0,0,0,0,0.2512,0.2494,0.2507,0.2519,0.252,0.2547,0.2547,0.2547,0.2556,0.2556,0.2556,0.2555,0.254,0.254,0.2539,0.254,0,0,0.2538,0.2538,0,0,0,0,0,0,0,0,0.2511,0.2512,0.2516,0.2518,0.252,0.2548,0.2537,0.2543,0.2556,0.2541,0.2556,0.2555,0.2539,0.2538,0.2545,0.254,0.2539,0.2538,0.2538,0.2537,0.2537,0,0,0,0,0,0,0,0.251,0.2511,0.2521,0.2517,0.2519,0.2541,0.2543,0.2539,0.2538,0.2542,0.2543,0.255,0.2539,0.2545,0.2544,0.2539,0.2538,0.2537,0.2537,0.2537,0.2602,0.2604,0,0,0,0,0,0,0.2506,0.251,0.252,0.2523,0.2517,0.2541,0.2543,0.2538,0.2539,0.254,0.255,0.2551,0.2546,0.2545,0.2543,0.2603,0.2537,0.2537,0.2537,0.26,0.2602,0.2605,0,0,0,0,0,0,0.2505,0.2506,0.2518,0.2519,0.2523,0.2541,0.2536,0.2538,0.2549,0.2547,0.2546,0.2559,0.2546,0.2544,0.256,0.26,0.2537,0.2536,0.2598,0.2601,0.2604,0.2684,0,0,0,0,0,0,0.2504,0.2505,0.2499,0.2518,0.2522,0.2543,0.2536,0.2539,0.2554,0.2555,0.2553,0.2551,0.2545,0.2561,0.2559,0.2598,0.2536,0.2595,0.2599,0.2603,0.2679,0.269,0.2699,0,0,0,0,0,0.2503,0.2497,0.2498,0.25,0.2514,0.2544,0.2548,0.256,0.2555,0.2567,0.2572,0.2552,0.2584,0.2562,0.256,0.2599,0.2593,0.2598,0.2602,0.2675,0.2688,0.2699,0,0,0,0,0,0,0.2486,0.2498,0.25,0.2496,0.2523,0.2546,0.2555,0.2563,0.2577,0.2574,0.2568,0.2568,0.2604,0.2587,0.2563,0.2632,0.2589,0.2593,0.2645,0.2657,0.2666,0.2691,0.2536,0,0,0,0,0,0.2481,0.2477,0.2502,0.25,0.2513,0.2534,0.2546,0.2559,0.2574,0.258,0.2586,0.2595,0.2621,0.2625,0.264,0.2662,0.2704,0.269,0.27,0.2709,0.2729,0.2858,0.2883,0.2619,0.2619,0.2619,0,0,0.2471,0.2479,0.2475,0.2497,0.2513,0.2555,0.2541,0.2564,0.2608,0.2575,0.2625,0.2628,0.2637,0.268,0.2694,0.2668,0.2802,0.2714,0.2721,0.2738,0.2866,0.2892,0.2915,0.2622,0.2622,0.2621,0,0,0.247,0.2461,0.2471,0.2502,0.2536,0.256,0.257,0.2604,0.2626,0.2665,0.2673,0.2703,0.2717,0.2753,0.2767,0.2836,0.2855,0.2834,0.2897,0.3022,0.3045,0.3066,0.3139,0.3166,0.2833,0.2833,0.2833,0,0.2461,0.2487,0.2481,0.2519,0.2563,0.2568,0.2624,0.2647,0.2686,0.2718,0.269,0.2772,0.2763,0.2854,0.2876,0.2861,0.2921,0.2849,0.3038,0.306,0.308,0.315,0.3179,0.2837,0.2837,0.2836,0.2836,0,0.2485,0.252,0.2533,0.2588,0.2627,0.2673,0.2719,0.2753,0.2771,0.28,0.288,0.2887,0.294,0.2942,0.2922,0.3063,0.3055,0.3043,0.3011,0.3112,0.3178,0.3206,0.2844,0.2842,0.2841,0.284,0,0,0.2449,0.2536,0.2545,0.2612,0.268,0.2726,0.2792,0.2874,0.2937,0.2957,0.3054,0.3085,0.3086,0.3105,0.3103,0.3189,0.3359,0.3175,0.3179,0.3252,0.3622,0.346,0.3475,0.3396,0.3401,0.3406,0.3605,0,0.2488,0.258,0.2617,0.2737,0.2806,0.2853,0.2932,0.2996,0.3034,0.3117,0.3139,0.3217,0.3153,0.3191,0.327,0.3348,0.3442,0.3304,0.3509,0.3514,0.3364,0.3505,0.3252,0.3396,0.3633,0.3638,0.3641,0,0.2521,0.2589,0.2701,0.2858,0.2893,0.2961,0.31,0.317,0.3259,0.3291,0.3352,0.3366,0.348,0.3414,0.3613,0.3535,0.3592,0.3636,0.3645,0.3489,0.3406,0.3337,0.3439,0.3347,0.3685,0.3682,0.3678,0,0.2534,0.2668,0.2769,0.2817,0.2966,0.3036,0.3118,0.3215,0.3304,0.3408,0.3477,0.3579,0.3661,0.3761,0.3801,0.3748,0.4016,0.3956,0.3866,0.3853,0.3673,0.3633,0.3712,0.4132,0.4131,0.4131,0.413,0,0.2593,0.2694,0.2784,0.2847,0.3001,0.3077,0.3232,0.3312,0.3432,0.3538,0.3575,0.3669,0.3764,0.3882,0.3905,0.3968,0.411,0.3916,0.3918,0.3686,0.3648,0.3581,0.3561,0.4138,0.4137,0.4135,0.4134,0,0.2658,0.2695,0.2833,0.2965,0.3016,0.3131,0.3315,0.3422,0.3515,0.3658,0.3704,0.3815,0.393,0.3997,0.4163,0.41,0.4048,0.4162,0.3844,0.3802,0.3545,0.3536,0.352,0.3437,0.4092,0.409,0.4088,0,0.2727,0.2788,0.2911,0.299,0.3069,0.3224,0.3337,0.3458,0.3547,0.372,0.3789,0.393,0.3982,0.4133,0.4057,0.4086,0.3995,0.3859,0.3691,0.353,0.3527,0.341,0.3336,0.3494,0.3487,0.3482,0.3477,0,0.2883,0.2892,0.298,0.31,0.3216,0.3356,0.3494,0.3564,0.3682,0.3761,0.3847,0.3904,0.3971,0.3842,0.3847,0.381,0.3627,0.374,0.3698,0.3173,0.2937,0.2854,0.3342,0.3428,0.3433,0.3436,0.3439,0.3441,0.2993,0.3059,0.3112,0.3238,0.3362,0.3455,0.3481,0.3566,0.3643,0.3642,0.3778,0.3715,0.3628,0.3552,0.3518,0.3227,0.3311,0.3058,0.3099,0.3024,0.2818,0.3157,0.3152,0.3155,0.3158,0.3161,0.3163,0,0.3126,0.3164,0.3267,0.3354,0.3456,0.3492,0.3563,0.3487,0.345,0.3459,0.3443,0.3259,0.3114,0.3013,0.2759,0.2612,0.251,0.2535,0.2346,0.2338,0.2751,0.259,0.2311,0.2311,0.2311,0.2311,0.2312,0.2312,0.3192,0.3266,0.3269,0.3393,0.3453,0.3421,0.3391,0.3239,0.3154,0.2933,0.275,0.2709,0.2684,0.2515,0.2277,0.2201,0.2087,0.1927,0.2065,0.2364,0.2416,0.2466,0.231,0.1977,0.1977,0.1471,0.1467,0.1464]},{"header":{"parameterUnit":"m.s-1","parameterCategory":2,"la1":30.2991,"la2":30.254,"lo1":-89.0895,"lo2":-89.0444,"dy":0.0017,"dx":0.0017,"nx":28,"ny":28,"refTime":"2024-08-04T21:00:00:Z","depth":"0","parameterNumber":3,"parameterNumberName":"V-component_of_CURRENTS"},"data":[0,0,0,0,0,0,0,0,0,0,0,0,0,0,0,0,0,0,0,0,0,0,0,0,0,0,0,0,0,0,0,0,0,0,0,0,0,0,0,0,0,0,0,0,0,0,0,0,0,0,0,0,0,0,0,0,0,0,-0.02,-0.02,0,-0.0201,-0.0201,-0.0201,-0.021,-0.0211,-0.0211,-0.0211,-0.023,-0.0231,-0.0231,0,0,0,0,0,0,0,0,0,0,0,0,0,-0.0217,-0.0217,-0.02,-0.02,-0.0199,-0.0201,-0.0201,-0.0201,-0.021,-0.0211,-0.0211,-0.0211,-0.023,-0.0231,-0.0231,0,0,0,0,0,0,0,0,0,0,0,0,0,-0.0215,-0.0217,-0.02,-0.0203,-0.0203,-0.0201,-0.0201,-0.0201,-0.021,-0.0211,-0.0211,-0.0211,-0.023,-0.0231,-0.0231,-0.0232,0,0,-0.0233,-0.0234,0,0,0,0,0,0,0,0,-0.0215,-0.0214,-0.0203,-0.0203,-0.0203,-0.0204,-0.0214,-0.0212,-0.021,-0.0209,-0.0211,-0.0211,-0.0222,-0.0224,-0.0225,-0.0233,-0.0234,-0.0233,-0.0234,-0.0234,-0.0234,0,0,0,0,0,0,0,-0.0215,-0.0214,-0.0202,-0.0203,-0.0203,-0.0209,-0.0209,-0.0214,-0.0216,-0.0209,-0.021,-0.0208,-0.0223,-0.0225,-0.0226,-0.0234,-0.0233,-0.0234,-0.0234,-0.0235,-0.0267,-0.0268,0,0,0,0,0,0,-0.0211,-0.0214,-0.0202,-0.0201,-0.0208,-0.0208,-0.0208,-0.0205,-0.0216,-0.0217,-0.0207,-0.0208,-0.0224,-0.0225,-0.0227,-0.0231,-0.0234,-0.0235,-0.0235,-0.0267,-0.0267,-0.0268,0,0,0,0,0,0,-0.0211,-0.021,-0.0201,-0.0207,-0.0206,-0.0207,-0.0204,-0.0205,-0.0205,-0.0214,-0.0216,-0.0206,-0.0224,-0.0226,-0.023,-0.0232,-0.0235,-0.0236,-0.0266,-0.0267,-0.0268,-0.0238,0,0,0,0,0,0,-0.0212,-0.021,-0.0206,-0.0207,-0.0206,-0.0194,-0.0204,-0.0205,-0.0203,-0.0203,-0.0214,-0.0216,-0.0224,-0.0229,-0.0231,-0.0233,-0.0236,-0.0266,-0.0266,-0.0267,-0.0238,-0.0237,-0.0237,0,0,0,0,0,-0.0213,-0.0201,-0.0205,-0.0204,-0.02,-0.0193,-0.0193,-0.0196,-0.0202,-0.0198,-0.0208,-0.0215,-0.0237,-0.0229,-0.0231,-0.0234,-0.0265,-0.0266,-0.0267,-0.0239,-0.0238,-0.0237,0,0,0,0,0,0,-0.0203,-0.0201,-0.0206,-0.0194,-0.0192,-0.0194,-0.0187,-0.0194,-0.0198,-0.0199,-0.0213,-0.0216,-0.0222,-0.0234,-0.0226,-0.0249,-0.0255,-0.0257,-0.0233,-0.0232,-0.0231,-0.0209,-0.0237,0,0,0,0,0,-0.02,-0.0192,-0.0193,-0.0183,-0.0181,-0.0186,-0.0183,-0.0186,-0.019,-0.0192,-0.0202,-0.0217,-0.0229,-0.0234,-0.0245,-0.0251,-0.0226,-0.0258,-0.0258,-0.0257,-0.0242,-0.0202,-0.0195,-0.0271,-0.0271,-0.0271,0,0,-0.0193,-0.019,-0.0186,-0.0181,-0.018,-0.0176,-0.0185,-0.0176,-0.0178,-0.0193,-0.0198,-0.021,-0.023,-0.0238,-0.0243,-0.0247,-0.0222,-0.0258,-0.0257,-0.0242,-0.0202,-0.0194,-0.0187,-0.0272,-0.0272,-0.0272,0,0,-0.0174,-0.0173,-0.0162,-0.016,-0.0155,-0.0162,-0.0159,-0.0162,-0.0166,-0.017,-0.0187,-0.0198,-0.0216,-0.0229,-0.0239,-0.0242,-0.0217,-0.0253,-0.0229,-0.0191,-0.0183,-0.0177,-0.0125,-0.0114,-0.0254,-0.0254,-0.0254,0,-0.0165,-0.0157,-0.0157,-0.0146,-0.0149,-0.0156,-0.0152,-0.0154,-0.016,-0.0157,-0.0168,-0.0185,-0.0211,-0.0213,-0.0223,-0.0239,-0.0201,-0.0228,-0.0186,-0.0179,-0.0172,-0.0122,-0.011,-0.0253,-0.0253,-0.0253,-0.0253,0,-0.0141,-0.0138,-0.0129,-0.0127,-0.0127,-0.0122,-0.0129,-0.0129,-0.0139,-0.0137,-0.0135,-0.016,-0.0164,-0.0187,-0.0208,-0.0184,-0.0166,-0.0185,-0.018,-0.0162,-0.0111,-0.0099,-0.0251,-0.0251,-0.0252,-0.0252,0,0,-0.0118,-0.0115,-0.0113,-0.0114,-0.0121,-0.0116,-0.0118,-0.0115,-0.0096,-0.0108,-0.0076,-0.0123,-0.0117,-0.0128,-0.0152,-0.0135,-0.0073,-0.0137,-0.0136,-0.007,0.0041,0.0005,0.0015,-0.007,-0.0068,-0.0067,0.0062,0,-0.0104,-0.0086,-0.0096,-0.0091,-0.0087,-0.0101,-0.0098,-0.0092,-0.0084,-0.005,-0.0062,-0.0041,-0.0099,-0.0088,-0.0081,-0.0055,-0.004,-0.0104,-0.0001,0.0003,-0.0017,0.0027,0.0026,0.0136,0.0074,0.0076,0.0077,0,-0.0085,-0.0076,-0.0069,-0.0073,-0.0072,-0.0069,-0.0058,-0.0055,-0.0014,-0.0,0.0025,0.0041,0.0072,0.0017,0.0077,0.005,0.0042,0.0047,0.0052,0.002,-0.001,0.0104,0.0161,0.0064,0.0096,0.0095,0.0093,0,-0.0071,-0.0064,-0.0062,-0.0063,-0.0062,-0.0059,-0.0058,-0.0031,0.0006,0.0053,0.0119,0.0139,0.0205,0.0195,0.0204,0.0158,0.0288,0.0223,0.0178,0.0177,0.0195,0.019,0.0184,0.0246,0.0246,0.0246,0.0245,0,-0.0067,-0.0067,-0.0049,-0.0045,-0.0012,-0.0035,0.0012,0.0021,0.0079,0.0176,0.0161,0.0278,0.026,0.0334,0.028,0.0301,0.0353,0.0207,0.0212,0.0202,0.0197,0.0127,0.0061,0.025,0.0249,0.0248,0.0248,0,-0.0069,-0.0066,-0.0038,-0.0017,-0.0002,0.0026,0.0083,0.0134,0.0163,0.0302,0.0337,0.0441,0.0541,0.0507,0.054,0.0434,0.0371,0.0394,0.0389,0.0388,0.0198,0.0134,0.0151,0.0117,0.0365,0.0365,0.0365,0,-0.0075,-0.0063,0.0009,0.0066,0.0078,0.0122,0.0173,0.0187,0.0266,0.043,0.0531,0.066,0.0804,0.0825,0.0668,0.0578,0.0445,0.0452,0.0318,0.0209,0.0142,0.0091,0.0057,0.0371,0.0371,0.0371,0.0371,0,-0.0058,-0.0023,0.003,0.0146,0.0215,0.0279,0.0355,0.0439,0.0499,0.0654,0.0892,0.1022,0.1021,0.0972,0.0779,0.0673,0.0372,0.0444,0.0349,0.0161,0.0094,0.0058,0.0271,0.0371,0.0371,0.0371,0.0371,0.0371,-0.0005,0.0062,0.0159,0.0261,0.0338,0.0438,0.054,0.0662,0.0841,0.109,0.1171,0.1391,0.1192,0.0958,0.0781,0.0399,0.0396,0.0256,0.02,0.0169,0.0086,0.029,0.0364,0.0364,0.0364,0.0364,0.0364,0,0.009,0.0166,0.0269,0.0401,0.0484,0.0498,0.0669,0.0802,0.1074,0.13,0.1524,0.1544,0.1297,0.0963,0.0444,0.0194,0.0099,0.0068,0.0001,-0.0014,0.02,0.0144,0.0153,0.0153,0.0153,0.0153,0.0153,0.0153,0.0166,0.0284,0.0331,0.0499,0.0579,0.0732,0.0853,0.1082,0.128,0.1595,0.1733,0.1806,0.1551,0.0665,0.0106,-0.0015,-0.017,-0.0202,-0.0265,-0.0137,-0.0124,-0.0112,-0.018,-0.024,-0.024,-0.0451,-0.0453,-0.0455]}],[{"header":{"parameterUnit":"m.s-1","parameterCategory":2,"la1":30.2991,"la2":30.254,"lo1":-89.0895,"lo2":-89.0444,"dy":0.0017,"dx":0.0017,"nx":28,"ny":28,"refTime":"2024-08-04T21:00:00:Z","depth":"2","parameterNumber":2,"parameterNumberName":"U-component_of_CURRENTS"},"data":[0,0,0,0,0,0,0,0,0,0,0,0,0,0,0,0,0,0,0,0,0,0,0,0,0,0,0,0,0,0,0,0,0,0,0,0,0,0,0,0,0,0,0,0,0,0,0,0,0,0,0,0,0,0,0,0,0,0,0.1912,0.1912,0,0.1932,0.1932,0.1932,0.1938,0.1938,0.1938,0.1938,0.1952,0.1952,0.1953,0,0,0,0,0,0,0,0,0,0,0,0,0,0.1911,0.191,0.1912,0.1912,0.1913,0.1932,0.1932,0.1932,0.1938,0.1938,0.1938,0.1938,0.1952,0.1952,0.1953,0,0,0,0,0,0,0,0,0,0,0,0,0,0.1918,0.191,0.1912,0.1918,0.1919,0.1932,0.1932,0.1932,0.1938,0.1938,0.1938,0.1938,0.1952,0.1952,0.1953,0.1958,0,0,0.1955,0.1955,0,0,0,0,0,0,0,0,0.1918,0.1918,0.1917,0.1918,0.1919,0.1933,0.1937,0.1941,0.1938,0.193,0.1938,0.1938,0.1946,0.1947,0.195,0.1958,0.1959,0.1955,0.1955,0.1955,0.1956,0,0,0,0,0,0,0,0.1917,0.1917,0.1919,0.1918,0.1919,0.1931,0.1932,0.1938,0.1937,0.1931,0.1931,0.1935,0.1946,0.1949,0.195,0.1959,0.1955,0.1955,0.1956,0.1956,0.199,0.199,0,0,0,0,0,0,0.1915,0.1917,0.1918,0.192,0.1919,0.1931,0.1932,0.1928,0.1937,0.1939,0.1935,0.1935,0.1948,0.1949,0.195,0.202,0.1955,0.1956,0.1956,0.1989,0.199,0.199,0,0,0,0,0,0,0.1914,0.1914,0.1918,0.192,0.1921,0.1931,0.1927,0.1928,0.195,0.1941,0.1942,0.1957,0.1948,0.195,0.1973,0.2018,0.1956,0.1957,0.1988,0.1989,0.199,0.2119,0,0,0,0,0,0,0.1914,0.1914,0.1917,0.1919,0.1921,0.1934,0.1927,0.1929,0.1951,0.1952,0.1959,0.196,0.1948,0.1972,0.1974,0.2018,0.1957,0.1988,0.1989,0.199,0.2114,0.2124,0.2133,0,0,0,0,0,0.1914,0.1914,0.1917,0.1918,0.1923,0.1935,0.1937,0.1944,0.1952,0.1963,0.1973,0.196,0.1979,0.1974,0.1975,0.2021,0.1987,0.1989,0.199,0.211,0.2122,0.2133,0,0,0,0,0,0,0.1904,0.1915,0.1918,0.1919,0.1932,0.1937,0.1949,0.1958,0.1975,0.1982,0.1976,0.1977,0.2019,0.1989,0.1983,0.2026,0.1978,0.1979,0.2069,0.208,0.2089,0.2079,0.1958,0,0,0,0,0,0.1907,0.1919,0.1925,0.193,0.1937,0.195,0.196,0.1967,0.1979,0.1988,0.1992,0.1996,0.2021,0.2026,0.2032,0.2056,0.2077,0.2079,0.2088,0.2097,0.2086,0.2188,0.2207,0.1994,0.1994,0.1994,0,0,0.1905,0.1913,0.192,0.1931,0.1942,0.1959,0.1956,0.1977,0.2007,0.1986,0.2026,0.2038,0.2036,0.2073,0.2086,0.2056,0.217,0.2098,0.2106,0.209,0.2191,0.2213,0.2232,0.1995,0.1995,0.1995,0,0,0.1913,0.1916,0.1934,0.1947,0.197,0.1978,0.1991,0.2007,0.2032,0.2067,0.2074,0.2124,0.2119,0.2155,0.2168,0.2228,0.2226,0.2205,0.2243,0.2344,0.2364,0.2381,0.2456,0.2479,0.22,0.2201,0.2201,0,0.1918,0.1931,0.1941,0.196,0.1969,0.1991,0.2007,0.2043,0.2068,0.2095,0.2088,0.2147,0.2174,0.2243,0.2263,0.2261,0.2284,0.2214,0.2363,0.238,0.2396,0.2468,0.2492,0.2207,0.2206,0.2205,0.2205,0,0.1927,0.1953,0.1964,0.1996,0.2004,0.2027,0.2059,0.2087,0.2117,0.2155,0.2227,0.2265,0.2306,0.2321,0.2314,0.2422,0.2394,0.2382,0.2349,0.2427,0.2496,0.2519,0.2216,0.2214,0.2212,0.221,0,0,0.1916,0.1966,0.1973,0.1996,0.2025,0.2033,0.2081,0.2132,0.221,0.223,0.2322,0.2377,0.2412,0.2426,0.2442,0.2505,0.2676,0.2476,0.2478,0.2573,0.2872,0.2713,0.2722,0.2682,0.2686,0.269,0.2885,0,0.1932,0.1959,0.1984,0.2027,0.2039,0.2069,0.2136,0.2185,0.225,0.2354,0.2402,0.2513,0.2453,0.2519,0.2571,0.2687,0.2734,0.2621,0.2758,0.2761,0.2632,0.2742,0.2479,0.2616,0.2906,0.291,0.2913,0,0.194,0.195,0.1973,0.2056,0.2071,0.2112,0.2197,0.2263,0.24,0.2473,0.2545,0.261,0.2746,0.2682,0.2865,0.279,0.282,0.2861,0.287,0.2683,0.2643,0.2577,0.2646,0.295,0.2947,0.2945,0.2942,0,0.1908,0.1963,0.1976,0.199,0.2071,0.211,0.2171,0.229,0.2392,0.2568,0.2667,0.28,0.2906,0.2982,0.3046,0.2995,0.3209,0.3182,0.3037,0.3027,0.2806,0.2767,0.3258,0.3258,0.3257,0.3257,0.3256,0,0.1918,0.1915,0.197,0.1987,0.2054,0.2105,0.2244,0.2332,0.2506,0.2643,0.2742,0.2868,0.2978,0.3088,0.3126,0.3158,0.3294,0.306,0.3074,0.2839,0.2803,0.3074,0.305,0.3264,0.3263,0.3261,0.326,0,0.1905,0.1887,0.1946,0.2041,0.2051,0.2113,0.2279,0.2414,0.2555,0.2728,0.2798,0.2981,0.3122,0.3172,0.3331,0.3259,0.3331,0.3268,0.296,0.293,0.3063,0.3043,0.3204,0.32,0.3197,0.3194,0.3192,0,0.1902,0.1946,0.2038,0.206,0.2107,0.2192,0.2289,0.2424,0.2532,0.2783,0.2855,0.3031,0.3099,0.3251,0.3195,0.3218,0.3258,0.2941,0.278,0.3063,0.3063,0.3047,0.3033,0.257,0.2563,0.2557,0.2553,0,0.196,0.2015,0.2054,0.2169,0.222,0.2297,0.2398,0.2458,0.2612,0.2727,0.2873,0.296,0.3037,0.2934,0.2898,0.2869,0.2934,0.2815,0.3267,0.2583,0.247,0.2467,0.2473,0.25,0.2506,0.2509,0.2512,0.2514,0.2032,0.209,0.2186,0.2259,0.2309,0.2347,0.2377,0.2471,0.2542,0.2591,0.2729,0.2729,0.2736,0.2554,0.2486,0.241,0.2596,0.2467,0.2485,0.251,0.236,0.2242,0.2203,0.2206,0.2209,0.2212,0.2214,0,0.2169,0.2172,0.228,0.2304,0.2334,0.2402,0.241,0.2355,0.2348,0.2405,0.2422,0.2178,0.2099,0.2127,0.1927,0.1894,0.1877,0.181,0.1781,0.1833,0.188,0.1697,0.1366,0.1364,0.1362,0.1359,0,0,0.2167,0.2196,0.2216,0.2205,0.2302,0.2269,0.2231,0.2166,0.2096,0.1957,0.1911,0.1987,0.2065,0.1704,0.1631,0.1479,0.1646,0.1405,0.2085,0.2104,0.2148,0.2254,0.203,0,0,0,0,0]},{"header":{"parameterUnit":"m.s-1","parameterCategory":2,"la1":30.2991,"la2":30.254,"lo1":-89.0895,"lo2":-89.0444,"dy":0.0017,"dx":0.0017,"nx":28,"ny":28,"refTime":"2024-08-04T21:00:00:Z","depth":"2","parameterNumber":3,"parameterNumberName":"V-component_of_CURRENTS"},"data":[0,0,0,0,0,0,0,0,0,0,0,0,0,0,0,0,0,0,0,0,0,0,0,0,0,0,0,0,0,0,0,0,0,0,0,0,0,0,0,0,0,0,0,0,0,0,0,0,0,0,0,0,0,0,0,0,0,0,0.0022,0.0022,0,0.0022,0.0022,0.0022,0.0012,0.0011,0.0011,0.0011,-0.0017,-0.0017,-0.0018,0,0,0,0,0,0,0,0,0,0,0,0,0,0.0,0.0001,0.0022,0.0022,0.0022,0.0022,0.0022,0.0022,0.0012,0.0011,0.0011,0.0011,-0.0016,-0.0017,-0.0018,0,0,0,0,0,0,0,0,0,0,0,0,0,0.0005,0.0001,0.0022,0.0017,0.0017,0.0022,0.0022,0.0022,0.0012,0.0011,0.0011,0.0011,-0.0016,-0.0017,-0.0018,-0.0017,0,0,-0.002,-0.0021,0,0,0,0,0,0,0,0,0.0005,0.0006,0.0018,0.0018,0.0017,0.0017,0.0005,0.0008,0.0012,0.0013,0.0011,0.0011,-0.0007,-0.0009,-0.0009,-0.0018,-0.0019,-0.002,-0.0021,-0.0021,-0.0021,0,0,0,0,0,0,0,0.0005,0.0006,0.0021,0.0018,0.0018,0.0011,0.0012,0.0005,0.0003,0.0013,0.0012,0.0014,-0.0008,-0.0008,-0.0009,-0.0019,-0.002,-0.0021,-0.0021,-0.0022,-0.0039,-0.0039,0,0,0,0,0,0,0.0007,0.0006,0.0021,0.0021,0.0011,0.0012,0.0013,0.0017,0.0004,0.0002,0.0014,0.0013,-0.0006,-0.0009,-0.0011,-0.0016,-0.0021,-0.0022,-0.0022,-0.0039,-0.0039,-0.0039,0,0,0,0,0,0,0.0007,0.0009,0.0021,0.0014,0.0015,0.0013,0.0018,0.0017,0.0014,0.0005,0.0003,0.0012,-0.0007,-0.0009,-0.0014,-0.0017,-0.0022,-0.0023,-0.0039,-0.0039,-0.0039,-0.0023,0,0,0,0,0,0,0.0006,0.0009,0.001,0.0014,0.0016,0.0031,0.0018,0.0017,0.0016,0.0015,0.0003,0.0,-0.0007,-0.0012,-0.0014,-0.0018,-0.0024,-0.0039,-0.0039,-0.0039,-0.0024,-0.0023,-0.0022,0,0,0,0,0,0.0006,0.0015,0.001,0.0012,0.0018,0.0032,0.0032,0.0029,0.0017,0.0023,0.0011,0.0001,-0.0014,-0.0013,-0.0015,-0.0019,-0.0039,-0.0039,-0.0039,-0.0024,-0.0023,-0.0022,0,0,0,0,0,0,0.0011,0.0015,0.001,0.002,0.0027,0.003,0.0035,0.0029,0.0024,0.0018,0.0004,0.0002,-0.0004,-0.0013,-0.0011,-0.0024,-0.0029,-0.003,-0.0018,-0.0017,-0.0016,0.0035,-0.0024,0,0,0,0,0,0.0012,0.0016,0.0022,0.003,0.0034,0.0032,0.0034,0.0032,0.003,0.0027,0.0019,0.0006,-0.0005,-0.0011,-0.0017,-0.0023,-0.0011,-0.0028,-0.0027,-0.0026,0.0013,0.0016,0.0021,-0.0038,-0.0038,-0.0038,0,0,0.0014,0.0018,0.0019,0.0031,0.0033,0.0049,0.0033,0.0041,0.0048,0.0025,0.003,0.0012,-0.0005,-0.001,-0.0014,-0.0018,-0.0007,-0.0026,-0.0025,0.0014,0.0017,0.0023,0.0028,-0.0038,-0.0038,-0.0038,0,0,0.0031,0.0028,0.004,0.0049,0.0057,0.0058,0.0061,0.0065,0.006,0.0062,0.0043,0.0026,0.0015,0.0001,-0.0009,-0.0006,-0.0,-0.0013,0.0032,0.0033,0.0038,0.0044,0.0052,0.0058,-0.0015,-0.0015,-0.0015,0,0.0032,0.0054,0.0046,0.0066,0.0086,0.0065,0.0095,0.0083,0.0083,0.0095,0.0067,0.0059,0.0021,0.0027,0.0023,-0.0004,0.0014,0.0025,0.0036,0.0041,0.0046,0.0054,0.0061,-0.0014,-0.0014,-0.0014,-0.0014,0,0.0065,0.0081,0.0092,0.0111,0.0129,0.0149,0.0146,0.0153,0.0139,0.0134,0.0139,0.0093,0.0095,0.0063,0.0042,0.006,0.0066,0.0037,0.0036,0.0054,0.006,0.0067,-0.0013,-0.0013,-0.0014,-0.0014,0,0,0.0072,0.0108,0.0112,0.015,0.016,0.0193,0.02,0.0226,0.0258,0.0218,0.0259,0.0198,0.018,0.017,0.0129,0.0125,0.0137,0.0108,0.0107,0.0125,0.0166,0.012,0.0123,0.012,0.0122,0.0123,0.0151,0,0.0103,0.0171,0.0168,0.0236,0.0284,0.0279,0.0307,0.0323,0.0319,0.0345,0.0284,0.029,0.0214,0.0216,0.0196,0.0173,0.0159,0.0134,0.0142,0.0143,0.0106,0.013,0.0134,0.0157,0.0157,0.0159,0.0159,0,0.0133,0.0191,0.0266,0.0349,0.0369,0.0397,0.0477,0.0489,0.0496,0.0497,0.0482,0.0437,0.0415,0.0337,0.0308,0.0307,0.0245,0.0211,0.021,0.0179,0.011,0.0142,0.0169,0.017,0.0169,0.0168,0.0168,0,0.0177,0.0257,0.0333,0.0357,0.0435,0.0475,0.0509,0.0544,0.0593,0.0588,0.0627,0.058,0.0577,0.0504,0.0395,0.0369,0.0375,0.0311,0.0211,0.0207,0.0221,0.0215,0.0285,0.0285,0.0285,0.0285,0.0285,0,0.0215,0.0289,0.0369,0.0405,0.0537,0.0553,0.0654,0.068,0.0731,0.0804,0.0705,0.0757,0.0626,0.059,0.0469,0.0377,0.0418,0.0249,0.022,0.0222,0.0216,0.0237,0.0231,0.0286,0.0286,0.0286,0.0286,0,0.0248,0.0301,0.0398,0.0493,0.0551,0.0637,0.0761,0.0837,0.0859,0.0953,0.0955,0.093,0.0869,0.0724,0.0621,0.0488,0.0382,0.0324,0.0336,0.0307,0.0198,0.0192,0.0237,0.0236,0.0235,0.0234,0.0233,0,0.0275,0.0316,0.0442,0.0546,0.0597,0.073,0.0832,0.0901,0.0991,0.1061,0.113,0.1084,0.1065,0.0891,0.0648,0.0439,0.0395,0.0298,0.0218,0.023,0.0197,0.0193,0.0189,0.0241,0.024,0.024,0.0239,0,0.0327,0.0346,0.0437,0.0608,0.0749,0.0892,0.1035,0.1147,0.122,0.1292,0.138,0.1358,0.1158,0.0946,0.0637,0.0483,0.0327,0.0279,0.0321,0.0236,0.0232,0.0199,0.0196,0.0235,0.0235,0.0236,0.0236,0.0236,0.0374,0.0439,0.0537,0.0715,0.0885,0.1057,0.1161,0.1306,0.1457,0.1552,0.1542,0.1481,0.1242,0.0824,0.057,0.0284,0.0295,0.0185,0.0189,0.0192,0.0171,0.0163,0.0151,0.0151,0.0151,0.0151,0.0151,0,0.045,0.0533,0.0659,0.0862,0.1039,0.1084,0.1314,0.1409,0.1583,0.1616,0.1644,0.1367,0.1132,0.0841,0.0412,0.0173,0.0152,0.0093,0.0124,0.013,0.0135,0.0112,0.0076,0.0075,0.0074,0.0073,0,0,0.0526,0.0663,0.0705,0.0994,0.1111,0.129,0.1414,0.1535,0.1619,0.1645,0.157,0.1503,0.1184,0.0857,0.0543,0.0306,0.0267,0.0253,0.0339,0.0419,0.0426,0.0215,0.0189,0,0,0,0,0]}],[{"header":{"parameterUnit":"m.s-1","parameterCategory":2,"la1":30.2991,"la2":30.254,"lo1":-89.0895,"lo2":-89.0444,"dy":0.0017,"dx":0.0017,"nx":28,"ny":28,"refTime":"2024-08-04T21:00:00:Z","depth":"4","parameterNumber":2,"parameterNumberName":"U-component_of_CURRENTS"},"data":[0,0,0,0,0,0,0,0,0,0,0,0,0,0,0,0,0,0,0,0,0,0,0,0,0,0,0,0,0,0,0,0,0,0,0,0,0,0,0,0,0,0,0,0,0,0,0,0,0,0,0,0,0,0,0,0,0,0,0.0909,0.0909,0,0.0943,0.0943,0.0943,0.099,0.0991,0.0992,0.0993,0.104,0.104,0.1041,0,0,0,0,0,0,0,0,0,0,0,0,0,0.0883,0.0883,0.0909,0.0909,0.091,0.0943,0.0943,0.0943,0.099,0.0991,0.0993,0.0994,0.104,0.104,0.1041,0,0,0,0,0,0,0,0,0,0,0,0,0,0.0901,0.0883,0.0909,0.0939,0.0942,0.0943,0.0943,0.0943,0.099,0.0991,0.0993,0.0994,0.104,0.104,0.1041,0.1014,0,0,0.1042,0.1042,0,0,0,0,0,0,0,0,0.09,0.0902,0.0934,0.0937,0.094,0.0966,0.0951,0.0968,0.099,0.097,0.0993,0.0995,0.1016,0.1019,0.1019,0.1016,0.1018,0.1042,0.1043,0.1043,0.1043,0,0,0,0,0,0,0,0.0899,0.0901,0.092,0.0934,0.0938,0.095,0.0954,0.0954,0.0983,0.0972,0.0976,0.0982,0.1018,0.1018,0.1021,0.1019,0.1042,0.1043,0.1043,0.1043,0.1101,0.1102,0,0,0,0,0,0,0.0897,0.09,0.0919,0.0921,0.0926,0.095,0.0954,0.0954,0.0983,0.0989,0.0981,0.0984,0.1017,0.102,0.1022,0.1049,0.1043,0.1043,0.1044,0.1099,0.1101,0.1102,0,0,0,0,0,0,0.0896,0.0898,0.0918,0.0913,0.0917,0.0949,0.0949,0.0954,0.0985,0.099,0.0997,0.101,0.1018,0.1022,0.1048,0.105,0.1043,0.1044,0.1098,0.11,0.1101,0.1067,0,0,0,0,0,0,0.0895,0.0897,0.0911,0.0913,0.0917,0.0933,0.0948,0.0954,0.0986,0.0992,0.1016,0.102,0.102,0.1047,0.1049,0.105,0.1044,0.1096,0.1099,0.1101,0.1066,0.1067,0.1068,0,0,0,0,0,0.0894,0.0904,0.0911,0.0915,0.093,0.0934,0.0937,0.0963,0.0986,0.0997,0.102,0.1021,0.1064,0.1048,0.1049,0.1051,0.1095,0.1098,0.1101,0.1066,0.1067,0.1068,0,0,0,0,0,0,0.09,0.0909,0.0918,0.0931,0.0939,0.0943,0.0962,0.0977,0.1002,0.1019,0.1027,0.1032,0.1062,0.1067,0.105,0.1081,0.1084,0.1087,0.1057,0.1058,0.1059,0.1103,0.1045,0,0,0,0,0,0.0905,0.0918,0.0922,0.0935,0.0942,0.0956,0.0969,0.0983,0.0999,0.1014,0.1031,0.1054,0.1068,0.1073,0.1092,0.1094,0.1139,0.1103,0.1104,0.1104,0.1145,0.1205,0.1214,0.1111,0.1111,0.1111,0,0,0.091,0.092,0.0927,0.0938,0.0949,0.095,0.0968,0.099,0.0999,0.1013,0.1044,0.1063,0.1076,0.1087,0.11,0.1091,0.1154,0.1108,0.1107,0.115,0.1209,0.1219,0.1228,0.1113,0.1113,0.1112,0,0,0.0906,0.0935,0.0934,0.0946,0.0966,0.0971,0.0983,0.0999,0.1022,0.1045,0.1061,0.1089,0.1107,0.1111,0.1114,0.1135,0.1166,0.1139,0.116,0.1215,0.1224,0.1233,0.1281,0.1295,0.1125,0.1125,0.1125,0,0.0915,0.0904,0.0936,0.0937,0.0942,0.098,0.097,0.0997,0.1024,0.1046,0.1063,0.1122,0.1122,0.1137,0.1146,0.1135,0.118,0.1142,0.1215,0.1225,0.1234,0.1282,0.1298,0.1124,0.1124,0.1124,0.1124,0,0.0897,0.0899,0.0904,0.0912,0.0927,0.093,0.096,0.0993,0.103,0.1059,0.1116,0.1133,0.1176,0.1163,0.116,0.1214,0.1228,0.1214,0.1207,0.1242,0.1291,0.1307,0.1122,0.1122,0.1123,0.1123,0,0,0.088,0.0884,0.0889,0.088,0.0911,0.0916,0.0948,0.0975,0.1018,0.1073,0.1127,0.1153,0.1204,0.1217,0.1216,0.1254,0.1331,0.1268,0.1271,0.1307,0.1467,0.1335,0.134,0.1331,0.1334,0.1337,0.1465,0,0.0848,0.083,0.0843,0.0832,0.082,0.0868,0.0895,0.0947,0.1007,0.1082,0.1141,0.1207,0.121,0.1242,0.1285,0.1318,0.1379,0.13,0.1439,0.1443,0.1314,0.1356,0.1347,0.1477,0.1481,0.1484,0.1486,0,0.0811,0.0806,0.0781,0.0783,0.0786,0.0804,0.0866,0.0899,0.1019,0.1072,0.1169,0.1246,0.1322,0.1332,0.1444,0.1397,0.1462,0.1491,0.1496,0.1409,0.1343,0.1444,0.1516,0.1514,0.1512,0.1509,0.1508,0,0.0764,0.0754,0.0731,0.0737,0.0762,0.0781,0.0814,0.0912,0.0973,0.1103,0.119,0.1282,0.1382,0.1449,0.1541,0.1506,0.1679,0.1621,0.1576,0.1567,0.1662,0.1652,0.1759,0.1759,0.1758,0.1758,0.1758,0,0.07,0.0681,0.0721,0.0715,0.0734,0.0765,0.0816,0.0878,0.0999,0.1095,0.1211,0.131,0.1435,0.1553,0.1583,0.163,0.172,0.1613,0.16,0.164,0.1627,0.1672,0.166,0.1763,0.1762,0.1761,0.176,0,0.062,0.0643,0.0634,0.0679,0.0711,0.0737,0.0833,0.088,0.1003,0.1142,0.1206,0.1388,0.1509,0.1621,0.1745,0.1697,0.173,0.1749,0.1813,0.1797,0.1569,0.1555,0.1666,0.1663,0.166,0.1658,0.1656,0,0.056,0.055,0.0627,0.066,0.0683,0.0736,0.0783,0.0886,0.0945,0.117,0.1235,0.1445,0.1549,0.163,0.1703,0.1755,0.1754,0.1756,0.1639,0.1588,0.1565,0.1555,0.1544,0.1651,0.165,0.165,0.1649,0,0.0469,0.0522,0.0539,0.0613,0.0672,0.0697,0.0773,0.0818,0.0957,0.1105,0.1259,0.136,0.1514,0.1574,0.167,0.1687,0.1708,0.1725,0.1729,0.162,0.1571,0.1548,0.1541,0.1639,0.164,0.1641,0.1642,0,0.0433,0.045,0.0519,0.0563,0.0618,0.0631,0.0675,0.0759,0.0847,0.1105,0.115,0.135,0.1516,0.1544,0.1595,0.1623,0.1577,0.1497,0.1513,0.1524,0.1411,0.1323,0.133,0,0,0,0,0,0.0402,0.043,0.0464,0.0517,0.054,0.0572,0.0655,0.0703,0.0868,0.096,0.1058,0.1192,0.131,0.1383,0.1384,0.1477,0.1546,0.1461,0.1452,0.1584,0.1595,0.1469,0,0,0,0,0,0,0.0402,0.0444,0.0455,0.0442,0.045,0.0478,0.0514,0.0625,0.0668,0.0864,0.094,0.1099,0.1225,0.1326,0.1365,0.1385,0.1344,0.1579,0.1574,0.1577,0.1587,0.1597,0.1471,0,0,0,0,0]},{"header":{"parameterUnit":"m.s-1","parameterCategory":2,"la1":30.2991,"la2":30.254,"lo1":-89.0895,"lo2":-89.0444,"dy":0.0017,"dx":0.0017,"nx":28,"ny":28,"refTime":"2024-08-04T21:00:00:Z","depth":"4","parameterNumber":3,"parameterNumberName":"V-component_of_CURRENTS"},"data":[0,0,0,0,0,0,0,0,0,0,0,0,0,0,0,0,0,0,0,0,0,0,0,0,0,0,0,0,0,0,0,0,0,0,0,0,0,0,0,0,0,0,0,0,0,0,0,0,0,0,0,0,0,0,0,0,0,0,0.0174,0.0174,0,0.0179,0.0179,0.018,0.0172,0.0171,0.0171,0.0171,0.0158,0.0158,0.0158,0,0,0,0,0,0,0,0,0,0,0,0,0,0.0158,0.0158,0.0174,0.0174,0.0174,0.0179,0.0179,0.018,0.0172,0.0171,0.0171,0.0171,0.0158,0.0158,0.0158,0,0,0,0,0,0,0,0,0,0,0,0,0,0.0165,0.0158,0.0174,0.0171,0.017,0.0179,0.0179,0.018,0.0172,0.0171,0.0171,0.017,0.0158,0.0158,0.0158,0.0167,0,0,0.0158,0.0158,0,0,0,0,0,0,0,0,0.0164,0.0165,0.0171,0.0171,0.017,0.0174,0.0169,0.0174,0.0172,0.0172,0.0171,0.017,0.0162,0.0161,0.0164,0.0166,0.0166,0.0158,0.0158,0.0158,0.0158,0,0,0,0,0,0,0,0.0164,0.0165,0.0177,0.0171,0.0171,0.0169,0.0169,0.017,0.0169,0.0172,0.0171,0.0171,0.0161,0.0164,0.0164,0.0166,0.0158,0.0158,0.0158,0.0157,0.0163,0.0163,0,0,0,0,0,0,0.0163,0.0165,0.0176,0.0177,0.0166,0.0169,0.017,0.0174,0.017,0.0169,0.0171,0.0171,0.0165,0.0164,0.0163,0.0195,0.0158,0.0157,0.0157,0.0163,0.0163,0.0163,0,0,0,0,0,0,0.0162,0.0164,0.0176,0.017,0.0171,0.017,0.0174,0.0174,0.0176,0.017,0.0168,0.0174,0.0164,0.0163,0.0169,0.0194,0.0157,0.0157,0.0162,0.0163,0.0163,0.0246,0,0,0,0,0,0,0.0162,0.0164,0.0167,0.017,0.0172,0.0187,0.0175,0.0174,0.0177,0.0176,0.0171,0.0169,0.0164,0.017,0.0169,0.0193,0.0157,0.0162,0.0163,0.0163,0.0243,0.0249,0.0254,0,0,0,0,0,0.0162,0.0169,0.0167,0.0168,0.0176,0.0188,0.0189,0.0186,0.0177,0.0185,0.0181,0.017,0.0171,0.017,0.017,0.0194,0.0162,0.0163,0.0163,0.024,0.0248,0.0254,0,0,0,0,0,0,0.0162,0.0169,0.0167,0.0175,0.0183,0.0186,0.0192,0.0188,0.0191,0.0189,0.0179,0.0177,0.019,0.0174,0.0173,0.0192,0.0162,0.0162,0.0221,0.0228,0.0233,0.0221,0.0157,0,0,0,0,0,0.0164,0.0173,0.0178,0.0186,0.019,0.0191,0.0194,0.0194,0.0197,0.0197,0.0195,0.0189,0.0192,0.0195,0.0191,0.0207,0.0165,0.0217,0.0223,0.0228,0.0215,0.0175,0.0176,0.0164,0.0164,0.0164,0,0,0.0166,0.0171,0.0175,0.0187,0.0191,0.0214,0.0192,0.0203,0.0223,0.0196,0.022,0.021,0.0198,0.0218,0.0221,0.0209,0.0211,0.0228,0.0233,0.0217,0.0175,0.0176,0.0177,0.0165,0.0165,0.0165,0,0,0.0186,0.018,0.0201,0.0212,0.0223,0.0226,0.023,0.0238,0.0242,0.026,0.0247,0.0245,0.0253,0.0252,0.0251,0.0279,0.024,0.0282,0.0309,0.0272,0.0272,0.0272,0.0231,0.0227,0.0288,0.0289,0.0289,0,0.0189,0.0221,0.0208,0.0236,0.0253,0.0235,0.0269,0.0272,0.0282,0.029,0.0274,0.0275,0.0267,0.0287,0.0298,0.0294,0.0261,0.0293,0.028,0.0279,0.0277,0.0235,0.0229,0.0293,0.0292,0.0292,0.0291,0,0.0229,0.026,0.0274,0.0306,0.0315,0.0341,0.0344,0.0357,0.0353,0.0352,0.036,0.034,0.0337,0.034,0.0331,0.0328,0.0306,0.0292,0.0267,0.0284,0.0238,0.0231,0.0298,0.0297,0.0296,0.0295,0,0,0.0231,0.0294,0.03,0.0333,0.0359,0.037,0.0404,0.0429,0.0441,0.0434,0.0446,0.0443,0.0412,0.0406,0.039,0.0357,0.0328,0.0325,0.0321,0.0292,0.0241,0.023,0.022,0.0317,0.0316,0.0315,0.0218,0,0.0276,0.0351,0.0365,0.0429,0.047,0.047,0.0501,0.0511,0.0504,0.0507,0.0476,0.0477,0.0444,0.0443,0.0405,0.034,0.0309,0.0355,0.0221,0.0216,0.0211,0.0211,0.0312,0.0212,0.021,0.0208,0.0207,0,0.0318,0.0367,0.0449,0.0508,0.0521,0.0552,0.0583,0.0607,0.0602,0.0593,0.0573,0.0538,0.0497,0.0463,0.0349,0.0379,0.0316,0.026,0.0255,0.0204,0.0191,0.0186,0.0193,0.0194,0.0195,0.0196,0.0197,0,0.0341,0.0421,0.0492,0.0514,0.0574,0.0606,0.0632,0.064,0.0665,0.0646,0.065,0.0578,0.0552,0.0449,0.0333,0.034,0.0192,0.0189,0.012,0.0118,0.0121,0.0122,0.0111,0.0111,0.0111,0.0111,0.0112,0,0.0392,0.0446,0.0511,0.0552,0.062,0.0639,0.0693,0.0707,0.0723,0.0749,0.0696,0.0681,0.0547,0.0452,0.0337,0.0195,0.0193,0.0112,0.009,0.016,0.0166,0.0116,0.0118,0.0108,0.0109,0.0109,0.011,0,0.0421,0.0469,0.0547,0.0618,0.0644,0.0688,0.0756,0.0792,0.0799,0.083,0.0833,0.0755,0.0623,0.0482,0.0304,0.0214,0.0072,0.0032,0.011,0.0095,0.0022,0.0029,-0.0064,-0.0065,-0.0067,-0.0067,-0.0068,0,0.0445,0.0496,0.0586,0.0631,0.0674,0.0741,0.0799,0.0835,0.0867,0.0868,0.0883,0.0784,0.0712,0.0442,0.0284,0.006,0.0042,-0.0029,-0.0002,0.0015,0.0003,0.0012,0.002,-0.007,-0.007,-0.007,-0.0071,0,0.0483,0.0516,0.0575,0.0672,0.0745,0.0819,0.0893,0.0922,0.0958,0.0971,0.0915,0.0792,0.0645,0.0432,0.0267,0.0108,0.0008,-0.0041,-0.0039,-0.0014,0.0007,-0.0002,0.0007,-0.0074,-0.0074,-0.0073,-0.0073,0,0.0499,0.0534,0.0609,0.0695,0.0788,0.0867,0.0906,0.094,0.0972,0.0975,0.0942,0.0794,0.0703,0.0457,0.0292,0.014,0.0108,0.0065,0.006,0.0063,0.013,0.0177,0.012,0,0,0,0,0,0.0509,0.0551,0.0624,0.0723,0.0821,0.088,0.0956,0.0983,0.1019,0.099,0.0969,0.083,0.0593,0.0474,0.0319,0.0271,0.008,0.0084,0.0028,-0.0095,-0.0091,-0.0034,0,0,0,0,0,0,0.0508,0.0581,0.0616,0.0732,0.0808,0.0919,0.0973,0.1003,0.0968,0.0972,0.0834,0.0796,0.0548,0.0685,0.0318,0.0272,0.0215,-0.0022,-0.0026,-0.0097,-0.0093,-0.009,-0.003,0,0,0,0,0]}]]